Weather History for KANJ - January, 2013

Change the Weather History Date:

Saturday, January 19, 2013

  Actual Average Record
Temperature  
Mean Temperature 24 °F 15 °F  
Max Temperature 30 °F 23 °F 42 °F (1996)
Min Temperature 17 °F 7 °F -27 °F (1984)
Degree Days  
Heating Degree Days 41 50  
Month to date heating degree days 772 938  
Since 1 July heating degree days 3739 4197  
Moisture  
Dew Point 17 °F    
Average Humidity 80    
Maximum Humidity 92    
Minimum Humidity 67    
Precipitation  
Precipitation 0.48 in 0.06 in 0.66 in (1949)
Month to date precipitation 1.98 1.42  
Year to date precipitation 1.98 1.42  
Snow  
Snow 5.10 in 1.00 in 9.80 in (1949)
Month to date snowfall 22.1 19.9  
Since 1 July snowfall 74.1 70.1  
Snow Depth 12.00 in    
Sea Level Pressure  
Sea Level Pressure 29.59 in    
Wind  
Wind Speed 7 mph (East)    
Max Wind Speed 23 mph    
Max Gust Speed 35 mph    
Visibility 4 miles    
Events Fog , Snow    
T = Trace of Precipitation, MM = Missing Value Source: NWS Daily Summary

Daily Weather History Graph

Daily Weather History Graph

Search for Another Location

Airport or City:

Trip Planner

Search our weather history database for the weather conditions in past years. The results will help you decide how hot, cold, wet, or windy it might be!

Date:

Astronomy

Jan. 19, 2013 Rise Set
Actual Time 8:13 AM EST 5:23 PM EST
Civil Twilight 7:40 AM EST 5:56 PM EST
Nautical Twilight 7:03 AM EST 6:33 PM EST
Astronomical Twilight 6:27 AM EST 7:09 PM EST
Moon 11:52 AM EST (1/19) 1:42 AM EST (1/19)
Length of Visible Light 10h 15m
Length of Day
9h 09m
First Quarter, 57% of the Moon is Illuminated
Jan 19
First Quarter
Jan 26
Full
Feb 3
Last Quarter
Feb 10
New
Feb 17
First Quarter

Hourly Weather History & Observations

Time (EST) Temp. Windchill Dew Point Humidity Pressure Visibility Wind Dir Wind Speed Gust Speed Precip Events Conditions
12:12 AM 21.0 °F - 18.0 °F 88% 29.71 in 1.2 mi Calm Calm - 0.01 in Snow Light Snow
12:20 AM 21.0 °F - 18.0 °F 88% 29.71 in 2.0 mi Calm Calm - 0.01 in Snow Light Snow
12:30 AM 21.0 °F - 18.0 °F 88% 29.71 in 5.0 mi Calm Calm - 0.01 in Snow Light Snow
12:55 AM 21.9 °F - 18.0 °F 85% 29.74 in 5.0 mi Calm Calm - 0.01 in Snow Light Snow
1:30 AM 21.9 °F - 18.0 °F 85% 29.71 in 2.0 mi Calm Calm - 0.01 in Snow Light Snow
1:41 AM 21.9 °F - 18.0 °F 85% 29.70 in 4.0 mi Calm Calm - 0.01 in Snow Light Snow
1:55 AM 21.9 °F - 18.0 °F 85% 29.74 in 3.0 mi Calm Calm - 0.01 in Snow Light Snow
2:19 AM 21.9 °F - 19.0 °F 89% 29.70 in 2.5 mi Calm Calm - 0.01 in Snow Light Snow
2:33 AM 21.9 °F 17.2 °F 18.0 °F 85% 29.70 in 2.5 mi ENE 3.5 mph - 0.01 in Snow Light Snow
2:38 AM 21.9 °F - 18.0 °F 85% 29.71 in 3.0 mi Calm Calm - 0.01 in Snow Light Snow
2:55 AM 21.9 °F - 19.0 °F 89% 29.75 in 4.0 mi Calm Calm - 0.01 in Snow Light Snow
3:04 AM 21.9 °F - 19.0 °F 89% 29.73 in 2.0 mi Calm Calm - 0.01 in Snow Light Snow
3:14 AM 21.9 °F - 19.0 °F 89% 29.73 in 3.0 mi Calm Calm - 0.01 in Snow Light Snow
3:31 AM 21.9 °F 17.2 °F 18.0 °F 85% 29.73 in 8.0 mi East 3.5 mph - 0.01 in   Overcast
3:55 AM 21.9 °F 17.2 °F 18.0 °F 85% 29.76 in 10.0 mi ENE 3.5 mph - 0.01 in   Overcast
4:55 AM 19.9 °F 12.1 °F 15.1 °F 81% 29.76 in 10.0 mi NE 5.8 mph - N/A   Overcast
5:55 AM 19.9 °F 13.4 °F 12.9 °F 74% 29.79 in 10.0 mi NE 4.6 mph - N/A   Mostly Cloudy
6:05 AM 19.0 °F 10.0 °F 12.0 °F 74% 29.76 in 10.0 mi NE 6.9 mph - N/A   Overcast
6:55 AM 19.0 °F 10.0 °F 10.9 °F 71% 29.80 in 10.0 mi NE 6.9 mph - N/A   Overcast
7:18 AM 18.0 °F 7.7 °F 10.0 °F 71% 29.78 in 10.0 mi ENE 8.1 mph - N/A   Overcast
7:55 AM 18.0 °F 8.7 °F 10.0 °F 71% 29.81 in 10.0 mi East 6.9 mph - N/A   Mostly Cloudy
8:55 AM 18.0 °F 9.8 °F 10.9 °F 74% 29.82 in 10.0 mi East 5.8 mph - N/A   Overcast
9:41 AM 18.0 °F 8.7 °F 10.9 °F 74% 29.79 in 10.0 mi East 6.9 mph - N/A   Overcast
9:55 AM 18.0 °F 7.7 °F 10.9 °F 74% 29.82 in 10.0 mi East 8.1 mph - N/A   Overcast
10:36 AM 19.0 °F 10.0 °F 12.0 °F 74% 29.78 in 10.0 mi East 6.9 mph - N/A   Overcast
10:55 AM 18.0 °F 8.7 °F 10.9 °F 74% 29.81 in 10.0 mi East 6.9 mph - N/A   Overcast
11:20 AM 19.0 °F 10.0 °F 12.0 °F 74% 29.76 in 10.0 mi East 6.9 mph - N/A   Overcast
11:55 AM 19.9 °F 8.6 °F 12.9 °F 74% 29.75 in 10.0 mi ESE 10.4 mph - N/A   Overcast
12:12 PM 19.0 °F 9.0 °F 12.9 °F 77% 29.71 in 5.0 mi East 8.1 mph - 0.00 in Snow Light Snow
12:40 PM 19.9 °F 9.3 °F 12.9 °F 74% 29.67 in 10.0 mi ESE 9.2 mph - 0.00 in   Overcast
12:55 PM 19.9 °F 9.3 °F 14.0 °F 78% 29.70 in 10.0 mi ESE 9.2 mph - 0.00 in   Overcast
1:20 PM 19.9 °F 9.3 °F 15.1 °F 81% 29.65 in 1.8 mi ESE 9.2 mph - 0.00 in Snow Light Snow
1:30 PM 19.9 °F 10.1 °F 15.1 °F 81% 29.65 in 0.8 mi ESE 8.1 mph - 0.01 in Snow Light Snow
1:55 PM 19.9 °F 10.1 °F 16.0 °F 85% 29.66 in 1.2 mi ESE 8.1 mph - 0.03 in Snow Light Snow
2:16 PM 21.0 °F 9.9 °F 16.0 °F 81% 29.61 in 1.5 mi East 10.4 mph - 0.00 in Snow Light Snow
2:30 PM 21.0 °F 13.4 °F 16.0 °F 81% 29.61 in 2.5 mi East 5.8 mph - 0.00 in   Haze
2:48 PM 21.0 °F 11.4 °F 16.0 °F 81% 29.60 in 0.8 mi East 8.1 mph 17.3 mph 0.01 in Snow Light Snow
2:55 PM 21.0 °F 12.4 °F 17.1 °F 85% 29.63 in 0.5 mi East 6.9 mph - 0.03 in Fog , Snow Snow
3:14 PM 21.0 °F 13.4 °F 17.1 °F 85% 29.58 in 2.0 mi ENE 5.8 mph - 0.02 in Snow Light Snow
3:23 PM 21.0 °F 14.6 °F 17.1 °F 85% 29.58 in 3.0 mi NE 4.6 mph - 0.02 in Snow Light Snow
3:29 PM 21.0 °F 12.4 °F 17.1 °F 85% 29.57 in 1.8 mi ENE 6.9 mph - 0.03 in Snow Light Snow
3:43 PM 21.0 °F 10.6 °F 17.1 °F 85% 29.55 in 0.5 mi East 9.2 mph - 0.04 in Fog , Snow Light Snow
3:51 PM 19.4 °F 8.6 °F 17.6 °F 93% 29.55 in 0.5 mi East 9.2 mph - 0.05 in Fog , Snow Snow
3:55 PM 21.0 °F 9.9 °F 17.1 °F 85% 29.58 in 0.5 mi East 10.4 mph - 0.05 in Fog , Snow Snow
4:42 PM 21.0 °F 10.6 °F 17.1 °F 85% 29.50 in 0.5 mi East 9.2 mph - 0.02 in Fog , Snow Light Snow
4:55 PM 21.0 °F 9.9 °F 17.1 °F 85% 29.52 in 0.5 mi East 10.4 mph - 0.03 in Fog , Snow Snow
5:04 PM 21.0 °F 9.9 °F 17.1 °F 85% 29.49 in 0.5 mi East 10.4 mph - 0.01 in Fog , Snow Snow
5:21 PM 21.0 °F 11.4 °F 17.1 °F 85% 29.48 in 0.2 mi East 8.1 mph - 0.02 in Fog , Snow Heavy Snow
5:47 PM 21.0 °F 9.3 °F 18.0 °F 88% 29.45 in 0.8 mi East 11.5 mph - 0.06 in Snow Light Snow
5:55 PM 21.0 °F 10.6 °F 18.0 °F 88% 29.47 in 1.0 mi East 9.2 mph 18.4 mph 0.07 in Snow Light Snow
6:03 PM 21.0 °F 9.9 °F 18.0 °F 88% 29.44 in 1.0 mi ESE 10.4 mph 18.4 mph 0.00 in Snow Light Snow
6:37 PM 21.9 °F 12.5 °F 18.0 °F 85% 29.42 in 3.0 mi East 8.1 mph - 0.02 in Snow Light Snow
6:53 PM 21.2 °F 12.6 °F 17.6 °F 86% 29.40 in 2.0 mi East 6.9 mph - 0.02 in Snow Light Snow
6:55 PM 21.9 °F 12.5 °F 18.0 °F 85% 29.43 in 1.5 mi East 8.1 mph - 0.02 in Snow Light Snow
7:39 PM 21.9 °F 15.7 °F 19.0 °F 89% 29.39 in 0.8 mi East 4.6 mph - 0.05 in Snow Light Snow
7:55 PM 21.9 °F - 18.0 °F 85% 29.41 in 0.8 mi Calm Calm - 0.06 in Snow Light Snow
8:40 PM 21.9 °F 15.7 °F 19.0 °F 89% 29.34 in 0.8 mi East 4.6 mph - 0.05 in Snow Light Snow
8:55 PM 21.9 °F 17.2 °F 19.0 °F 89% 29.37 in 0.8 mi North 3.5 mph - 0.07 in Snow Light Snow
9:51 PM 21.2 °F 16.4 °F 19.4 °F 93% 29.34 in 1.0 mi SW 3.5 mph - 0.05 in Snow Light Snow
9:55 PM 21.9 °F 17.2 °F 19.0 °F 89% 29.37 in 0.8 mi WSW 3.5 mph - 0.06 in Snow Light Snow
10:06 PM 24.1 °F 13.1 °F 19.9 °F 84% 29.34 in 1.0 mi West 11.5 mph 17.3 mph 0.00 in Snow Light Snow
10:22 PM 27.0 °F 16.7 °F 23.0 °F 85% 29.33 in 2.5 mi West 11.5 mph - 0.01 in Snow Light Snow
10:34 PM 30.0 °F 19.1 °F 25.0 °F 82% 29.32 in 4.0 mi West 15.0 mph 23.0 mph 0.01 in   Haze
10:50 PM 30.2 °F 17.8 °F 21.2 °F 69% 29.32 in 3.0 mi West 19.6 mph 33.4 mph 0.01 in   Overcast
10:55 PM 30.0 °F 17.9 °F 21.9 °F 72% 29.34 in 2.5 mi West 18.4 mph 33.4 mph 0.01 in   Overcast
11:07 PM 28.9 °F 15.8 °F 21.9 °F 75% 29.33 in 1.8 mi West 20.7 mph 31.1 mph 0.00 in   Overcast
11:15 PM 28.0 °F 14.9 °F 21.0 °F 75% 29.33 in 2.0 mi West 19.6 mph 35.7 mph 0.00 in Snow Light Snow
11:50 PM 26.6 °F 13.8 °F 17.6 °F 69% 29.34 in 5.0 mi West 17.3 mph 28.8 mph 0.00 in   Haze
11:55 PM 26.1 °F 13.1 °F 17.1 °F 69% 29.36 in 4.0 mi West 17.3 mph 32.2 mph 0.00 in   Haze